This is the latest recevied weather packets stored in our database for station/object KI4BIY. If no packets are shown the sender has not sent any weather packets the latest 1 day(s).
| Time | Temp. | Humidity | Pressure | Rain* | Wind** | Luminosity | Snow |
|---|---|---|---|---|---|---|---|
| 1836274838 | 20.56° C | 89% | 1016 hPa | 0 mm | 0 m/s | 0 W/m² | - |
| 1836274536 | 20.56° C | 88% | 1016 hPa | 0 mm | 0 m/s | 0 W/m² | - |
| 1836274389 | 20.56° C | 89% | 1016.2 hPa | 0 mm | 0 m/s | 0 W/m² | - |
| 1836274235 | 20.56° C | 87% | 1016.3 hPa | 0 mm | 0 m/s | 0 W/m² | - |
| 1836273934 | 21.11° C | 88% | 1016.3 hPa | 0 mm | 0 m/s | 0 W/m² | - |
| 1778051043 | 12.22° C | 99% | 1007.9 hPa | 0 mm | 0 m/s | 0 W/m² | - |
| 1778050740 | 12.22° C | 99% | 1007.2 hPa | 0 mm | 0.45 m/s, 46° | 0 W/m² | - |
| 1778050438 | 12.22° C | 99% | 1007.8 hPa | 0 mm | 0.45 m/s, 298° | 0 W/m² | - |
| 1778050134 | 12.22° C | 99% | 1008.1 hPa | 0 mm | 0.45 m/s, 225° | 0 W/m² | - |
| 1778049830 | 12.78° C | 99% | 1008.5 hPa | 0 mm | 0.45 m/s, 334° | 0 W/m² | - |
| 1778049527 | 12.78° C | 99% | 1008.3 hPa | 0 mm | 0.45 m/s, 275° | 0 W/m² | - |
| 1778049225 | 12.78° C | 99% | 1007.9 hPa | 1.78 mm | 0 m/s | 0 W/m² | - |
| 1778048923 | 12.78° C | 99% | 1007.7 hPa | 13.72 mm | 0 m/s | 0 W/m² | - |
| 1778048620 | 12.78° C | 99% | 1007.6 hPa | 36.58 mm | 0 m/s | 0 W/m² | - |
| 1778048316 | 12.78° C | 99% | 1007 hPa | 57.66 mm | 0 m/s | 0 W/m² | - |
| 1778048013 | 12.78° C | 99% | 1007.8 hPa | 53.34 mm | 0 m/s | 0 W/m² | - |
| 1778047711 | 12.78° C | 99% | 1008.1 hPa | 51.56 mm | 0 m/s | 0 W/m² | - |
| 1778047409 | 13.33° C | 99% | 1007 hPa | 37.85 mm | 0.89 m/s, 273° | 0 W/m² | - |
| 1778047106 | 13.33° C | 99% | 1007 hPa | 19.81 mm | 0.89 m/s, 293° | 0 W/m² | - |
| 1778046803 | 13.33° C | 99% | 1006.3 hPa | 21.59 mm | 0.89 m/s, 311° | 0 W/m² | - |
| 1778046500 | 14.44° C | 98% | 1006.5 hPa | 6.1 mm | 2.24 m/s, 338° | 0 W/m² | - |
| 1778046196 | 17.78° C | 99% | 1005.8 hPa | 0 mm | 0.89 m/s, 140° | 0 W/m² | - |
| 1778045893 | 18.89° C | 99% | 1005.7 hPa | 0 mm | 0.45 m/s, 323° | 0 W/m² | - |
| 1778045592 | 19.44° C | 99% | 1005.4 hPa | 0 mm | 0 m/s | 0 W/m² | - |
| 1778045289 | 19.44° C | 99% | 1005 hPa | 0 mm | 0 m/s | 0 W/m² | - |
* Rain latest hour (hover to see other rain measurements)
** Current wind speed in m/s (hover to see current wind gust speed)